Location: Helsinki
(60.1699°N, 24.9384°E)
Time: 20:05:53
(UTC+02:00)

Transit 2A Rocket - Pass Details

Date: 25 September 2023
Orbit: 593 x 903 km, 66.7° (Epoch: 28 November)

Event Time Altitude Azimuth Distance (km) Brightness Sun altitude
Rises 22:20:20 0° 305° (NW) 3,074 9.6 -22.3°
Reaches altitude 10° 22:22:46 10° 308° (NW) 2,108 8.4 -22.5°
Maximum altitude 22:27:29 67° 31° (NNE) 690 4.7 -22.9°
Enters shadow 22:27:59 61° 72° (ENE) 719 4.6 -23.0°
Drops below altitude 10° 22:31:52 10° 115° (ESE) 1,966 - -23.3°
Sets 22:34:04 0° 118° (ESE) 2,848 - -23.5°
